When you browse on this site, cookies collect data to enhance your experience and personalize the content and advertising you see.
Visit our Privacy Policy to learn more. By continuing to use the site, you agree to this use of cookies and data.
  • In Lithuania
  • List of Countries
  • For 7 days
  • Water Temperature
  • Satellite Maps
  • Weather Map
  • Weather Widgets
  • user-avatar
    Login

    Hourly Weather Elbasan

    Today, 10 December, Monday

    Time Temperature Precipitation Wind Pressure Humidity
    00:00 +8°C° 0.5 mm 3 mps 728 mmHg 86%
    01:00 +8°C° 0.5 mm 3 mps 728 mmHg 86%
    02:00 +8°C° 0.9 mm 3 mps 727 mmHg 88%
    03:00 +8°C° 0.9 mm 3 mps 727 mmHg 90%
    04:00 +8°C° 0.9 mm 3 mps 727 mmHg 92%
    05:00 +8°C° 0.4 mm 3 mps 727 mmHg 92%
    06:00 +8°C° 0.4 mm 3 mps 727 mmHg 91%
    07:00 +8°C° 0.4 mm 3 mps 727 mmHg 91%
    08:00 +8°C° 0.4 mm 3 mps 728 mmHg 87%
    09:00 +8°C° 0.4 mm 4 mps 728 mmHg 82%
    10:00 +8°C° 0.4 mm 4 mps 729 mmHg 78%
    11:00 +10°C° 0 mm 3 mps 729 mmHg 72%
    12:00 +10°C° 0 mm 3 mps 729 mmHg 65%
    13:00 +12°C° 0 mm 2 mps 729 mmHg 59%
    14:00 +10°C° 0 mm 2 mps 730 mmHg 63%
    15:00 +9°C° 0 mm 2 mps 730 mmHg 67%
    16:00 +8°C° 0 mm 2 mps 730 mmHg 71%
    17:00 +8°C° 0 mm 2 mps 730 mmHg 74%
    18:00 +7°C° 0 mm 2 mps 731 mmHg 77%
    19:00 +6°C° 0 mm 2 mps 731 mmHg 79%
    20:00 +6°C° 0 mm 2 mps 731 mmHg 79%
    21:00 +5°C° 0 mm 2 mps 732 mmHg 80%
    22:00 +5°C° 0 mm 2 mps 732 mmHg 80%
    23:00 +5°C° 0 mm 2 mps 732 mmHg 80%

    Tomorrow, 11 December, Tuesday

    Time Temperature Precipitation Wind Pressure Humidity
    00:00 +5°C° 0 mm 2 mps 732 mmHg 80%
    01:00 +4°C° 0 mm 2 mps 733 mmHg 80%
    02:00 +4°C° 0 mm 2 mps 733 mmHg 80%
    03:00 +4°C° 0 mm 2 mps 733 mmHg 80%
    04:00 +4°C° 0 mm 2 mps 732 mmHg 80%
    05:00 +4°C° 0 mm 2 mps 733 mmHg 80%
    06:00 +4°C° 0 mm 2 mps 733 mmHg 80%
    07:00 +3°C° 0 mm 2 mps 733 mmHg 80%
    08:00 +5°C° 0 mm 2 mps 734 mmHg 74%
    09:00 +6°C° 0 mm 2 mps 734 mmHg 68%
    10:00 +7°C° 0 mm 2 mps 734 mmHg 62%
    11:00 +7°C° 0 mm 2 mps 734 mmHg 58%
    12:00 +9°C° 0 mm 1 mps 734 mmHg 54%
    13:00 +9°C° 0 mm 1 mps 734 mmHg 50%
    14:00 +8°C° 0 mm 1 mps 734 mmHg 54%
    15:00 +7°C° 0 mm 1 mps 734 mmHg 57%
    16:00 +7°C° 0 mm 1 mps 734 mmHg 61%
    17:00 +6°C° 0 mm 1 mps 734 mmHg 64%
    18:00 +5°C° 0 mm 1 mps 735 mmHg 66%
    19:00 +5°C° 0 mm 1 mps 735 mmHg 69%
    20:00 +5°C° 0 mm 1 mps 735 mmHg 69%
    21:00 +4°C° 0 mm 1 mps 735 mmHg 70%
    22:00 +4°C° 0 mm 1 mps 735 mmHg 70%
    23:00 +4°C° 0.1 mm 1 mps 736 mmHg 70%

    Day after tomorrow, 12 December, Wednesday

    Time Temperature Precipitation Wind Pressure Humidity
    00:00 +4°C° 0.1 mm 1 mps 736 mmHg 70%
    01:00 +4°C° 0.1 mm 1 mps 736 mmHg 70%
    02:00 +4°C° 0 mm 1 mps 736 mmHg 72%
    03:00 +3°C° 0 mm 1 mps 736 mmHg 74%
    04:00 +3°C° 0 mm 1 mps 736 mmHg 76%
    05:00 +3°C° 0 mm 1 mps 736 mmHg 76%
    06:00 +3°C° 0 mm 1 mps 737 mmHg 76%
    07:00 +2°C° 0 mm 1 mps 737 mmHg 76%
    08:00 +4°C° 0 mm 1 mps 738 mmHg 68%
    09:00 +5°C° 0 mm 1 mps 738 mmHg 60%
    10:00 +7°C° 0 mm 1 mps 738 mmHg 52%
    11:00 +7°C° 0 mm 1 mps 738 mmHg 47%
    12:00 +7°C° 0 mm 1 mps 738 mmHg 42%
    13:00 +8°C° 0 mm 1 mps 737 mmHg 37%
    14:00 +7°C° 0 mm 1 mps 737 mmHg 41%
    15:00 +6°C° 0 mm 1 mps 737 mmHg 44%
    16:00 +5°C° 0 mm 1 mps 737 mmHg 48%
    17:00 +5°C° 0 mm 1 mps 737 mmHg 48%
    18:00 +4°C° 0 mm 1 mps 738 mmHg 48%
    19:00 +4°C° 0 mm 1 mps 738 mmHg 49%
    20:00 +4°C° 0 mm 1 mps 738 mmHg 48%
    21:00 +3°C° 0 mm 2 mps 738 mmHg 47%
    22:00 +3°C° 0 mm 2 mps 738 mmHg 47%
    23:00 +3°C° 0 mm 2 mps 738 mmHg 46%

    13 December, Thursday

    Time Temperature Precipitation Wind Pressure Humidity
    00:00 +3°C° 0 mm 2 mps 737 mmHg 45%
    01:00 +4°C° 0 mm 2 mps 737 mmHg 44%
    02:00 +4°C° 0 mm 2 mps 737 mmHg 42%
    03:00 +4°C° 0 mm 2 mps 737 mmHg 41%
    04:00 +4°C° 0 mm 2 mps 737 mmHg 40%
    05:00 +4°C° 0.1 mm 2 mps 736 mmHg 44%
    06:00 +4°C° 0.1 mm 2 mps 736 mmHg 47%
    07:00 +3°C° 0.1 mm 3 mps 736 mmHg 51%
    08:00 +3°C° 0.1 mm 3 mps 736 mmHg 53%
    09:00 +4°C° 0.1 mm 3 mps 736 mmHg 56%
    10:00 +5°C° 0.1 mm 3 mps 736 mmHg 58%
    11:00 +5°C° 0.2 mm 3 mps 736 mmHg 63%
    12:00 +5°C° 0.2 mm 3 mps 735 mmHg 68%
    13:00 +5°C° 0.2 mm 3 mps 735 mmHg 74%
    14:00 +5°C° 0.5 mm 3 mps 735 mmHg 77%
    15:00 +5°C° 0.5 mm 3 mps 735 mmHg 80%
    16:00 +5°C° 0.5 mm 3 mps 735 mmHg 83%
    17:00 +5°C° 0.6 mm 3 mps 735 mmHg 84%
    18:00 +5°C° 0.6 mm 3 mps 735 mmHg 85%
    19:00 +5°C° 0.6 mm 3 mps 735 mmHg 86%
    20:00 +5°C° 0.2 mm 3 mps 735 mmHg 87%
    21:00 +5°C° 0.2 mm 3 mps 735 mmHg 88%
    22:00 +5°C° 0.2 mm 3 mps 735 mmHg 89%
    23:00 +5°C° 0.4 mm 3 mps 734 mmHg 89%

    14 December, Friday

    Time Temperature Precipitation Wind Pressure Humidity
    00:00 +7°C° 0.4 mm 3 mps 734 mmHg 90%
    01:00 +7°C° 0.4 mm 3 mps 734 mmHg 91%
    02:00 +7°C° 0.4 mm 3 mps 733 mmHg 91%
    03:00 +7°C° 0.4 mm 3 mps 733 mmHg 90%
    04:00 +6°C° 0.4 mm 4 mps 732 mmHg 90%
    05:00 +6°C° 0.3 mm 4 mps 732 mmHg 90%
    06:00 +7°C° 0.3 mm 4 mps 731 mmHg 90%
    07:00 +7°C° 0.3 mm 4 mps 731 mmHg 90%
    08:00 +8°C° 0 mm 4 mps 731 mmHg 89%
    09:00 +10°C° 0 mm 4 mps 731 mmHg 87%
    10:00 +9°C° 0 mm 5 mps 731 mmHg 86%
    11:00 +10°C° 0.4 mm 5 mps 730 mmHg 85%
    12:00 +10°C° 0.4 mm 5 mps 729 mmHg 85%
    13:00 +10°C° 0.4 mm 5 mps 729 mmHg 85%
    14:00 +10°C° 1.5 mm 5 mps 728 mmHg 87%
    15:00 +10°C° 1.5 mm 4 mps 728 mmHg 89%
    16:00 +8°C° 1.5 mm 4 mps 727 mmHg 91%
    17:00 +8°C° 2.5 mm 4 mps 727 mmHg 92%
    18:00 +9°C° 2.5 mm 3 mps 727 mmHg 93%
    19:00 +8°C° 2.5 mm 3 mps 727 mmHg 94%
    20:00 +8°C° 1.4 mm 3 mps 727 mmHg 93%
    21:00 +8°C° 1.4 mm 3 mps 727 mmHg 92%
    22:00 +8°C° 1.4 mm 3 mps 727 mmHg 91%
    23:00 +8°C° 0.6 mm 2 mps 727 mmHg 91%

    15 December, Saturday

    Time Temperature Precipitation Wind Pressure Humidity
    00:00 +8°C° 0.6 mm 2 mps 727 mmHg 90%
    01:00 +8°C° 0.6 mm 2 mps 727 mmHg 89%
    02:00 +7°C° 0.1 mm 2 mps 726 mmHg 89%
    03:00 +7°C° 0.1 mm 2 mps 726 mmHg 89%
    04:00 +7°C° 0.1 mm 2 mps 726 mmHg 89%
    05:00 +7°C° 0.1 mm 2 mps 726 mmHg 88%
    06:00 +7°C° 0.1 mm 2 mps 727 mmHg 87%
    07:00 +7°C° 0.1 mm 2 mps 727 mmHg 86%
    08:00 +8°C° 0.2 mm 2 mps 727 mmHg 83%
    09:00 +9°C° 0.2 mm 2 mps 728 mmHg 79%
    10:00 +9°C° 0.2 mm 2 mps 728 mmHg 76%
    11:00 +10°C° 0.1 mm 2 mps 728 mmHg 74%
    12:00 +10°C° 0.1 mm 2 mps 728 mmHg 72%
    13:00 +11°C° 0.1 mm 3 mps 728 mmHg 70%
    14:00 +10°C° 0.1 mm 3 mps 729 mmHg 73%
    15:00 +9°C° 0.1 mm 3 mps 729 mmHg 77%
    16:00 +8°C° 0.1 mm 3 mps 730 mmHg 81%
    17:00 +7°C° 0 mm 3 mps 730 mmHg 82%
    18:00 +7°C° 0 mm 3 mps 731 mmHg 82%
    19:00 +5°C° 0 mm 3 mps 731 mmHg 83%
    20:00 +4°C° 0 mm 3 mps 732 mmHg 83%
    21:00 +4°C° 0 mm 3 mps 732 mmHg 82%
    22:00 +4°C° 0 mm 3 mps 733 mmHg 82%
    23:00 +3°C° 0 mm 3 mps 733 mmHg 82%
    Show more